2023-001S (55025 NORAD) Tracking and Keplerian Element Data

This shows tracking and keplerian element data for the satellite.

Feedback or suggestion? Click here.




ElementValue
Catalog55025
Name2023-001S
Epoch Orbit171
Epoch Day13.91884449
Epoch Year2023
RAAN75.8652
Inclination97.5047
Eccentricity0.0011796
Argument of Perigee181.0553
Mean Anonmoly179.0655
Mean Motion15.12453006
Decay Rate9.557E-05
L11 55025U 23001S 23013.91884449 .00009557 00000+0 55219-3 0 9999
L22 55025 97.5047 75.8652 0011796 181.0553 179.0655 15.12453006 1710



Live tracking and technical data element details for 2023-001S (NORAD 55025). 2023-001S can be tracked NOW for your location showing map with azimuth and elevation plus other details from your city location.







IsCatalogInMostPopularTable: catalog: 55025, numindb: 3
Update: records affected: 1



GetName: 55025 2023-001S

Hit Count: updated at: Tue, 07 Feb 2023 15:26:06 GMT